Weather in Yamnovo

Russia / Nizhny Novgorod Oblast'     56°14′59″N   44°33′26″E
temp.,
°C
wind,
m/s
gust,
m/s
humid.,
%
clouds,
%
prec.,
mm/h
press.,
hPa
HPBL,
m
5 march, fri
fri500:00−11wnw23955 0.0 99921
03:00−13nw229416 0.0 100120
06:00−14wnw229715 0.0 100220
09:00−10wnw249628 0.0 1004185
12:00−6w359382 0.0 1004402
15:00−4w368988 0.1 1006757
18:00−6wsw2394100 0.3 100678
21:00−7w2697100 0.9 1009167
6 march, sat
sat600:00−11wnw3894100 0.1 1011244
03:00−16wnw379360 0.1 1013130
06:00−18w23940 0.0 101435
09:00−13w25920 0.0 1015241
12:00−9w369288 0.1 1015507
15:00−7w368894 0.2 1014900
18:00−11wnw239397 0.1 101361
21:00−15wnw229351 0.1 101420
7 march, sun
sun700:00−17wsw22940 0.0 101320
03:00−17ssw23960 0.0 101220
06:00−17s23948 0.0 101043
09:00−12s4109335 0.0 1007290
12:00−7s61188100 0.0 1003603
15:00−5ssw71390100 0.3 1000961
18:00−5s61393100 1.1 9951086
21:00−5s61294100 2.2 993908
8 march, mon
mon800:00−7w51193100 1.0 992733
03:00−10wsw5148799 1.1 994490
06:00−10sw4139174 0.0 994455
09:00−8sw5109387 0.3 994569
12:00−6sw4794100 0.5 994649
15:00−5ssw3693100 1.3 994563
18:00−7nw1296100 0.1 99521
21:00−10wnw4109499 0.4 997328
9 march, tue
tue900:00−10nw41094100 0.1 1000387
03:00−13wnw41194100 0.1 1003395
06:00−14wnw3895100 0.1 1006304
09:00−14wnw4794100 0.2 1009362
12:00−12wnw4692100 0.1 1010525
15:00−11wnw4691100 0.1 1011581
18:00−13nw3794100 0.1 1012321
21:00−14wnw2696100 0.1 1014189